This is the latest recevied weather packets stored in our database for station/object OH7GGX-14. If no packets are shown the sender has not sent any weather packets the latest 10 day(s).
| Time | Temp. | Humidity | Pressure | Rain* | Wind** | Luminosity | Snow |
|---|---|---|---|---|---|---|---|
| 1787981817 | 8.89° C | 99% | 1026 hPa | 0 mm | - | - | - |
| 1787981217 | 8.33° C | 99% | 1026 hPa | 0 mm | - | - | - |
| 1787980617 | 8.33° C | 99% | 1026.1 hPa | 0 mm | - | - | - |
| 1787980017 | 7.78° C | 99% | 1026.1 hPa | 0 mm | - | - | - |
| 1787979417 | 7.22° C | 99% | 1026.4 hPa | 0 mm | - | - | - |
| 1787978817 | 7.22° C | 99% | 1026.3 hPa | 0 mm | - | - | - |
| 1787978217 | 6.67° C | 99% | 1026.6 hPa | 0 mm | - | - | - |
| 1787977617 | 6.11° C | 99% | 1026.6 hPa | 0 mm | - | - | - |
| 1787977017 | 6.11° C | 99% | 1026.6 hPa | 0 mm | - | - | - |
| 1787976417 | 5.56° C | 99% | 1026.7 hPa | 0 mm | - | - | - |
| 1787975817 | 5.56° C | 99% | 1026.7 hPa | 0 mm | - | - | - |
| 1787975217 | 5° C | 99% | 1026.8 hPa | 0 mm | - | - | - |
| 1787974617 | 5° C | 99% | 1026.9 hPa | 0 mm | - | - | - |
| 1787974017 | 5° C | 99% | 1026.9 hPa | 0 mm | - | - | - |
| 1787973417 | 5° C | 99% | 1027 hPa | 0 mm | - | - | - |
| 1787972817 | 5° C | 99% | 1027 hPa | 0 mm | - | - | - |
| 1787972217 | 5° C | 99% | 1026.9 hPa | 0 mm | - | - | - |
| 1787971617 | 4.44° C | 99% | 1027 hPa | 0 mm | - | - | - |
| 1787971017 | 4.44° C | 99% | 1027 hPa | 0 mm | - | - | - |
| 1787970417 | 5° C | 99% | 1027.1 hPa | 0 mm | - | - | - |
| 1787969817 | 5° C | 99% | 1027.1 hPa | 0 mm | - | - | - |
| 1787969217 | 5° C | 99% | 1027.1 hPa | 0 mm | - | - | - |
| 1787968617 | 5° C | 99% | 1027.2 hPa | 0 mm | - | - | - |
| 1787968017 | 5° C | 99% | 1027.2 hPa | 0 mm | - | - | - |
| 1787967417 | 5° C | 99% | 1027.1 hPa | 0 mm | - | - | - |
* Rain latest hour (hover to see other rain measurements)
** Current wind speed in m/s (hover to see current wind gust speed)